DW1590 Weather Reports


Display with metric or nautical units.
time (UTC)temp
F
wind
direction
speed
MPH
gust
MPH
rain 1hr
in
rain 24hr
in
rain mn
in
humidity
%
barometer
mb
20260503210019 63 287 4.0 0.0 0.00 0.00 0.00 33 1013.3
20260503204516 62 324 6.0 0.0 0.00 0.00 0.00 36 1013.2
20260503203021 62 323 7.0 0.0 0.00 0.00 0.00 35 1013.4
20260503201512 61 304 7.0 0.0 0.00 0.00 0.00 36 1013.6
20260503200012 61 219 6.0 0.0 0.00 0.00 0.00 36 1013.9
20260503194516 61 312 7.0 0.0 0.00 0.00 0.00 39 1014.1
20260503193009 61 309 8.0 0.0 0.00 0.00 0.00 38 1014.2
20260503191507 60 271 8.0 0.0 0.00 0.00 0.00 39 1014.5
20260503190007 60 246 5.0 0.0 0.00 0.00 0.00 40 1014.6
20260503184504 59 242 9.0 0.0 0.00 0.00 0.00 40 1014.8
20260503183001 59 351 7.0 0.0 0.00 0.00 0.00 42 1015.0
20260503181559 58 213 10.0 0.0 0.00 0.00 0.00 42 1015.0
20260503180057 57 325 8.0 0.0 0.00 0.00 0.00 40 1015.1
20260503174610 57 284 6.0 0.0 0.00 0.00 0.00 43 1015.3
20260503173123 56 271 7.0 0.0 0.00 0.00 0.00 42 1015.5
20260503171552 56 297 8.0 0.0 0.00 0.00 0.00 44 1015.4
20260503100106 42 294 3.0 0.0 0.00 0.00 0.00 60 1014.3
20260503081553 42 254 2.0 0.0 0.00 0.00 0.00 61 1013.4
20260503071553 43 270 1.0 0.0 0.00 0.00 0.00 64 1012.9
20260503054530 46 252 2.0 0.0 0.00 0.00 0.00 65 1012.7
20260503053016 46 286 2.0 0.0 0.00 0.00 0.00 65 1012.7
20260503051513 47 263 1.0 0.0 0.00 0.00 0.00 65 1012.7
20260503050011 47 269 1.0 0.0 0.00 0.00 0.00 64 1012.7
20260503044508 48 271 2.0 0.0 0.00 0.00 0.00 63 1012.9
20260503043006 48 294 2.0 0.0 0.00 0.00 0.00 63 1013.0
20260503041504 48 304 4.0 0.0 0.00 0.00 0.00 62 1013.0
20260503040001 49 295 5.0 0.0 0.00 0.00 0.00 62 1013.1
20260503034600 49 350 4.0 0.0 0.00 0.00 0.00 62 1013.1
20260503033059 49 313 5.0 0.0 0.00 0.00 0.00 61 1013.0
20260503031549 50 321 4.0 0.0 0.00 0.00 0.00 61 1012.8
20260503030044 50 304 5.0 0.0 0.00 0.00 0.00 60 1012.8
20260503024547 50 325 4.0 0.0 0.00 0.00 0.00 59 1012.8
20260503023037 50 338 3.0 0.0 0.00 0.00 0.00 59 1013.0
20260503021534 51 284 5.0 0.0 0.00 0.00 0.00 58 1012.8
20260503020028 51 324 2.0 0.0 0.00 0.00 0.00 59 1012.9
20260503014523 52 303 1.0 0.0 0.00 0.00 0.00 59 1012.7
20260503013030 52 323 0.0 0.0 0.00 0.00 0.00 57 1012.6
20260503011514 53 324 0.0 0.0 0.00 0.00 0.00 55 1012.5
20260503010010 54 83 0.0 0.0 0.00 0.00 0.00 54 1012.2
20260503004506 54 349 2.0 0.0 0.00 0.00 0.00 53 1012.1
20260503003001 54 277 2.0 0.0 0.00 0.00 0.00 52 1011.9
20260503001557 54 360 3.0 0.0 0.00 0.00 0.00 52 1011.9
20260503000053 55 355 1.0 0.0 0.00 0.00 0.00 52 1011.8
20260502234609 55 317 3.0 0.0 0.00 0.00 0.00 50 1011.7
20260502233043 55 260 3.0 0.0 0.00 0.00 0.00 50 1011.5
20260502231539 56 321 4.0 0.0 0.00 0.00 0.00 49 1011.5
20260502230034 56 325 5.0 0.0 0.00 0.00 0.00 48 1011.4
20260502224531 56 286 6.0 0.0 0.00 0.00 0.00 47 1011.4
20260502223026 57 340 5.0 0.0 0.00 0.00 0.00 47 1011.1
20260502221522 57 297 3.0 0.0 0.00 0.00 0.00 46 1011.1
20260502220021 57 286 4.0 0.0 0.00 0.00 0.00 45 1011.2
20260502214513 57 250 5.0 0.0 0.00 0.00 0.00 45 1011.1
20260502213019 58 275 6.0 0.0 0.00 0.00 0.00 44 1011.1
20260502211505 59 51 6.0 0.0 0.00 0.00 0.00 44 1011.0